QPF
0.00 0.00 0.00 0.01 0.01 0.00 0.00 0.00 0.00 0.00 0.00 0.00 0.00 0.00 0.00 0.00 0.00 0.01 0.02 0.01 0.01 0.02 0.01 0.01 0.01 0.01 0.02 0.03 0.01 0.01 0.02 0.02 0.01 0.01 0.01 0.01 0.02 0.02 0.02 0.02 0.02 0.03 0.03 0.02 0.02 0.01 0.01 0.01 0.01
0.00 0.00 0.01 0.01 0.01 0.00 0.00 0.00 0.00 0.00 0.00 0.00 0.00 0.00 0.00 0.00 0.00 0.01 0.01 0.01 0.01 0.02 0.02 0.01 0.01 0.01 0.02 0.02 0.01 0.01 0.01 0.02 0.01 0.01 0.01 0.01 0.02 0.02 0.02 0.01 0.01 0.02 0.04 0.04 0.02 0.02 0.02 0.01 0.01
0.00 0.00 0.01 0.01 0.00 0.00 0.00 0.00 0.00 0.00 0.00 0.00 0.00 0.00 0.00 0.01 0.01 0.01 0.01 0.01 0.01 0.01 0.01 0.01 0.01 0.01 0.02 0.01 0.01 0.01 0.01 0.02 0.02 0.02 0.01 0.02 0.02 0.02 0.02 0.01 0.01 0.01 0.03 0.03 0.01 0.02 0.02 0.02 0.01
0.01 0.01 0.02 0.01 0.00 0.00 0.00 0.00 0.00 0.00 0.00 0.00 0.00 0.00 0.00 0.00 0.00 0.00 0.01 0.00 0.00 0.00 0.01 0.01 0.02 0.02 0.03 0.02 0.01 0.01 0.01 0.01 0.02 0.01 0.01 0.02 0.03 0.03 0.03 0.01 0.02 0.02 0.04 0.02 0.01 0.01 0.01 0.01 0.01
0.01 0.02 0.01 0.01 0.00 0.00 0.00 0.00 0.00 0.00 0.00 0.00 0.00 0.01 0.01 0.01 0.00 0.00 0.01 0.01 0.00 0.01 0.01 0.02 0.03 0.04 0.03 0.02 0.01 0.01 0.01 0.01 0.02 0.02 0.01 0.02 0.02 0.02 0.03 0.02 0.02 0.02 0.02 0.01 0.00 0.01 0.01 0.01 0.01
0.02 0.02 0.01 0.00 0.00 0.00 0.00 0.00 0.00 0.00 0.00 0.00 0.00 0.01 0.01 0.01 0.00 0.00 0.01 0.02 0.02 0.01 0.01 0.02 0.05 0.04 0.03 0.02 0.02 0.02 0.02 0.02 0.03 0.03 0.02 0.02 0.02 0.02 0.03 0.02 0.02 0.02 0.01 0.00 0.01 0.00 0.00 0.01 0.01
0.02 0.02 0.01 0.00 0.00 0.00 0.00 0.00 0.00 0.00 0.00 0.00 0.00 0.01 0.01 0.01 0.01 0.01 0.01 0.03 0.04 0.02 0.01 0.02 0.03 0.03 0.03 0.02 0.02 0.02 0.02 0.02 0.02 0.02 0.02 0.02 0.02 0.02 0.02 0.02 0.01 0.02 0.01 0.00 0.00 0.01 0.00 0.01 0.01
0.03 0.02 0.02 0.01 0.01 0.00 0.00 0.00 0.00 0.01 0.00 0.00 0.00 0.00 0.00 0.01 0.01 0.02 0.02 0.03 0.04 0.03 0.02 0.02 0.03 0.04 0.04 0.03 0.02 0.02 0.01 0.01 0.01 0.01 0.01 0.01 0.01 0.02 0.02 0.02 0.01 0.02 0.01 0.00 0.00 0.00 0.00 0.01 0.01
0.05 0.05 0.03 0.01 0.01 0.00 0.00 0.00 0.00 0.01 0.01 0.00 0.00 0.00 0.01 0.01 0.02 0.03 0.04 0.04 0.04 0.04 0.03 0.02 0.03 0.04 0.04 0.03 0.02 0.02 0.02 0.01 0.01 0.01 0.00 0.01 0.01 0.02 0.02 0.01 0.01 0.01 0.01 0.00 0.00 0.00 0.00 0.00 0.00
0.07 0.07 0.04 0.01 0.00 0.00 0.00 0.00 0.00 0.01 0.01 0.01 0.02 0.02 0.02 0.03 0.04 0.05 0.04 0.04 0.04 0.03 0.03 0.02 0.03 0.03 0.04 0.04 0.04 0.03 0.02 0.02 0.02 0.02 0.01 0.01 0.01 0.02 0.01 0.01 0.01 0.01 0.01 0.01 0.01 0.01 0.00 0.00 0.00
0.06 0.06 0.03 0.02 0.01 0.00 0.00 0.00 0.00 0.00 0.01 0.01 0.01 0.01 0.02 0.03 0.04 0.05 0.04 0.04 0.04 0.04 0.04 0.03 0.03 0.03 0.04 0.05 0.06 0.05 0.04 0.03 0.03 0.02 0.01 0.01 0.01 0.02 0.01 0.01 0.01 0.01 0.01 0.01 0.01 0.01 0.00 0.00 0.00
0.05 0.04 0.03 0.02 0.01 0.00 0.00 0.00 0.00 0.00 0.01 0.01 0.01 0.01 0.02 0.03 0.03 0.04 0.04 0.04 0.05 0.05 0.04 0.05 0.05 0.07 0.06 0.06 0.06 0.06 0.05 0.03 0.03 0.04 0.03 0.02 0.01 0.01 0.01 0.01 0.01 0.01 0.01 0.01 0.01 0.01 0.01 0.00 0.00
0.04 0.03 0.02 0.02 0.02 0.01 0.00 0.00 0.00 0.00 0.01 0.02 0.04 0.03 0.02 0.03 0.02 0.04 0.05 0.05 0.05 0.06 0.05 0.05 0.06 0.07 0.08 0.08 0.07 0.06 0.06 0.04 0.04 0.04 0.03 0.03 0.03 0.02 0.01 0.01 0.02 0.01 0.01 0.01 0.01 0.01 0.01 0.01 0.00
0.04 0.03 0.02 0.03 0.03 0.02 0.01 0.00 0.00 0.01 0.02 0.04 0.05 0.03 0.02 0.03 0.03 0.04 0.05 0.04 0.05 0.07 0.08 0.06 0.06 0.07 0.08 0.08 0.09 0.09 0.08 0.07 0.06 0.05 0.05 0.05 0.04 0.05 0.04 0.02 0.02 0.02 0.01 0.01 0.01 0.01 0.01 0.01 0.01
0.03 0.03 0.03 0.03 0.05 0.03 0.01 0.01 0.00 0.01 0.02 0.04 0.05 0.06 0.04 0.03 0.03 0.04 0.04 0.05 0.04 0.05 0.08 0.07 0.07 0.09 0.09 0.08 0.10 0.11 0.10 0.09 0.08 0.08 0.06 0.06 0.05 0.05 0.06 0.05 0.04 0.03 0.02 0.01 0.01 0.01 0.01 0.01 0.01
0.04 0.05 0.05 0.04 0.04 0.04 0.02 0.01 0.01 0.02 0.03 0.04 0.05 0.07 0.07 0.04 0.04 0.04 0.05 0.06 0.05 0.05 0.06 0.08 0.08 0.09 0.10 0.09 0.09 0.10 0.11 0.11 0.08 0.08 0.08 0.07 0.05 0.04 0.05 0.06 0.05 0.04 0.03 0.02 0.01 0.02 0.02 0.02 0.01
0.06 0.07 0.05 0.04 0.05 0.05 0.02 0.01 0.01 0.02 0.03 0.03 0.04 0.06 0.07 0.06 0.05 0.05 0.06 0.07 0.07 0.06 0.05 0.07 0.08 0.08 0.10 0.10 0.10 0.08 0.10 0.12 0.11 0.09 0.08 0.08 0.06 0.03 0.03 0.04 0.04 0.04 0.04 0.03 0.03 0.02 0.02 0.02 0.02
0.05 0.04 0.03 0.04 0.05 0.06 0.03 0.01 0.01 0.02 0.02 0.03 0.03 0.04 0.07 0.07 0.04 0.04 0.06 0.08 0.09 0.08 0.07 0.07 0.07 0.08 0.10 0.13 0.12 0.10 0.10 0.11 0.13 0.12 0.10 0.08 0.09 0.06 0.03 0.02 0.03 0.03 0.02 0.02 0.01 0.01 0.01 0.01 0.01
0.02 0.02 0.02 0.04 0.04 0.05 0.04 0.02 0.02 0.02 0.02 0.03 0.03 0.04 0.05 0.06 0.06 0.05 0.06 0.08 0.10 0.10 0.09 0.08 0.07 0.07 0.08 0.10 0.11 0.11 0.09 0.08 0.10 0.14 0.13 0.11 0.09 0.08 0.05 0.03 0.03 0.04 0.03 0.02 0.01 0.01 0.01 0.01 0.01
0.03 0.02 0.02 0.03 0.04 0.04 0.04 0.03 0.02 0.03 0.03 0.03 0.03 0.03 0.03 0.04 0.05 0.07 0.08 0.08 0.08 0.08 0.09 0.09 0.08 0.06 0.06 0.06 0.10 0.12 0.11 0.10 0.09 0.10 0.14 0.13 0.11 0.09 0.07 0.05 0.04 0.03 0.03 0.02 0.01 0.01 0.01 0.01 0.01
0.04 0.02 0.02 0.04 0.06 0.06 0.06 0.05 0.03 0.03 0.03 0.03 0.03 0.03 0.03 0.04 0.03 0.04 0.07 0.09 0.08 0.08 0.09 0.09 0.09 0.07 0.06 0.05 0.08 0.12 0.15 0.14 0.11 0.10 0.11 0.15 0.13 0.09 0.07 0.06 0.05 0.04 0.03 0.02 0.01 0.01 0.01 0.01 0.01
0.05 0.03 0.02 0.03 0.07 0.10 0.08 0.09 0.06 0.03 0.03 0.03 0.03 0.02 0.03 0.04 0.04 0.04 0.06 0.10 0.11 0.09 0.09 0.10 0.10 0.09 0.08 0.07 0.05 0.06 0.09 0.15 0.16 0.12 0.09 0.11 0.17 0.17 0.12 0.10 0.08 0.06 0.05 0.03 0.02 0.01 0.01 0.01 0.02
0.04 0.03 0.03 0.04 0.06 0.09 0.08 0.08 0.06 0.03 0.03 0.03 0.03 0.02 0.02 0.03 0.04 0.04 0.05 0.10 0.14 0.12 0.10 0.11 0.11 0.10 0.09 0.08 0.07 0.05 0.05 0.08 0.14 0.17 0.14 0.10 0.10 0.15 0.19 0.16 0.12 0.10 0.08 0.05 0.03 0.02 0.01 0.01 0.02
0.04 0.05 0.07 0.08 0.09 0.12 0.08 0.06 0.06 0.05 0.04 0.02 0.01 0.02 0.02 0.03 0.03 0.04 0.06 0.10 0.11 0.11 0.11 0.11 0.12 0.11 0.10 0.10 0.08 0.07 0.05 0.05 0.06 0.10 0.15 0.14 0.10 0.09 0.11 0.16 0.17 0.14 0.13 0.11 0.09 0.06 0.04 0.03 0.03
0.04 0.05 0.10 0.13 0.14 0.12 0.06 0.04 0.05 0.05 0.04 0.02 0.01 0.01 0.01 0.02 0.03 0.03 0.05 0.07 0.08 0.08 0.10 0.10 0.12 0.13 0.12 0.15 0.10 0.07 0.06 0.05 0.05 0.05 0.08 0.10 0.10 0.09 0.08 0.08 0.12 0.13 0.11 0.10 0.10 0.08 0.07 0.06 0.05
0.05 0.04 0.06 0.09 0.09 0.06 0.06 0.06 0.06 0.04 0.03 0.02 0.01 0.01 0.02 0.03 0.03 0.03 0.04 0.04 0.04 0.06 0.07 0.08 0.10 0.13 0.13 0.14 0.14 0.08 0.06 0.06 0.05 0.05 0.05 0.06 0.07 0.08 0.08 0.07 0.07 0.06 0.05 0.06 0.07 0.08 0.08 0.09 0.09
0.05 0.04 0.02 0.03 0.03 0.04 0.06 0.06 0.05 0.02 0.01 0.01 0.02 0.01 0.02 0.03 0.04 0.03 0.03 0.03 0.03 0.04 0.06 0.06 0.07 0.09 0.11 0.13 0.15 0.09 0.06 0.06 0.06 0.05 0.06 0.06 0.06 0.05 0.06 0.06 0.06 0.05 0.05 0.04 0.05 0.05 0.06 0.07 0.09
0.04 0.04 0.03 0.03 0.04 0.05 0.04 0.03 0.04 0.03 0.02 0.02 0.03 0.02 0.02 0.02 0.04 0.03 0.03 0.02 0.03 0.04 0.05 0.05 0.06 0.07 0.08 0.10 0.14 0.12 0.08 0.07 0.07 0.06 0.05 0.05 0.06 0.06 0.05 0.05 0.05 0.05 0.05 0.05 0.06 0.05 0.04 0.04 0.04
0.05 0.05 0.04 0.02 0.02 0.04 0.03 0.02 0.02 0.02 0.02 0.03 0.03 0.03 0.03 0.02 0.03 0.03 0.03 0.02 0.03 0.05 0.06 0.06 0.06 0.08 0.09 0.12 0.12 0.13 0.10 0.06 0.05 0.06 0.06 0.05 0.04 0.03 0.03 0.04 0.04 0.04 0.04 0.04 0.05 0.05 0.05 0.04 0.04
0.04 0.05 0.04 0.02 0.02 0.02 0.03 0.03 0.01 0.01 0.02 0.02 0.03 0.04 0.04 0.02 0.03 0.04 0.04 0.04 0.05 0.06 0.07 0.07 0.07 0.08 0.08 0.10 0.12 0.12 0.11 0.09 0.06 0.04 0.04 0.04 0.05 0.05 0.04 0.04 0.03 0.03 0.04 0.04 0.04 0.04 0.04 0.03 0.03
MSLP
1015.30 1015.39 1015.51 1015.58 1015.50 1015.24 1014.77 1014.11 1013.32 1012.46 1011.60 1010.77 1009.97 1009.17 1008.34 1007.43 1006.42 1005.34 1004.26 1003.26 1002.46 1001.95 1001.78 1001.97 1002.47 1003.18 1003.98 1004.77 1005.45 1006.01 1006.45 1006.83 1007.22 1007.69 1008.28 1008.97 1009.74 1010.51 1011.21 1011.78 1012.21 1012.49 1012.67 1012.80 1012.94 1013.12 1013.36 1013.63 1013.92
1015.50 1015.61 1015.72 1015.75 1015.62 1015.29 1014.74 1014.01 1013.14 1012.21 1011.28 1010.38 1009.50 1008.63 1007.73 1006.75 1005.69 1004.58 1003.47 1002.47 1001.68 1001.20 1001.07 1001.31 1001.87 1002.64 1003.51 1004.37 1005.14 1005.78 1006.31 1006.76 1007.20 1007.69 1008.27 1008.93 1009.66 1010.39 1011.06 1011.62 1012.05 1012.37 1012.59 1012.77 1012.94 1013.15 1013.40 1013.68 1013.96
1015.84 1015.96 1016.06 1016.06 1015.90 1015.52 1014.94 1014.18 1013.29 1012.34 1011.39 1010.46 1009.54 1008.60 1007.62 1006.56 1005.41 1004.22 1003.05 1002.01 1001.19 1000.70 1000.57 1000.82 1001.39 1002.20 1003.11 1004.03 1004.87 1005.59 1006.19 1006.69 1007.16 1007.65 1008.21 1008.83 1009.49 1010.17 1010.80 1011.36 1011.81 1012.17 1012.45 1012.69 1012.92 1013.17 1013.44 1013.73 1014.02
1016.35 1016.49 1016.59 1016.57 1016.37 1015.97 1015.37 1014.62 1013.75 1012.84 1011.90 1010.97 1010.03 1009.05 1007.99 1006.84 1005.61 1004.33 1003.08 1001.97 1001.10 1000.55 1000.39 1000.60 1001.15 1001.93 1002.85 1003.78 1004.66 1005.42 1006.06 1006.61 1007.10 1007.59 1008.11 1008.68 1009.29 1009.91 1010.51 1011.07 1011.55 1011.97 1012.32 1012.63 1012.93 1013.22 1013.51 1013.81 1014.10
1017.02 1017.18 1017.26 1017.21 1016.99 1016.57 1015.98 1015.25 1014.43 1013.56 1012.68 1011.77 1010.84 1009.83 1008.73 1007.51 1006.20 1004.84 1003.52 1002.34 1001.41 1000.79 1000.55 1000.69 1001.15 1001.86 1002.72 1003.62 1004.48 1005.25 1005.92 1006.49 1007.00 1007.49 1008.00 1008.53 1009.10 1009.68 1010.27 1010.82 1011.34 1011.81 1012.23 1012.62 1012.97 1013.30 1013.62 1013.92 1014.21
1017.75 1017.92 1017.98 1017.90 1017.63 1017.19 1016.60 1015.91 1015.14 1014.34 1013.52 1012.66 1011.75 1010.75 1009.63 1008.38 1007.03 1005.63 1004.27 1003.04 1002.04 1001.36 1001.02 1001.03 1001.38 1001.96 1002.69 1003.50 1004.30 1005.05 1005.72 1006.32 1006.86 1007.38 1007.89 1008.42 1008.97 1009.54 1010.11 1010.68 1011.22 1011.73 1012.21 1012.65 1013.05 1013.41 1013.74 1014.04 1014.32
1018.42 1018.58 1018.60 1018.45 1018.14 1017.66 1017.06 1016.39 1015.67 1014.93 1014.18 1013.38 1012.52 1011.55 1010.45 1009.21 1007.87 1006.48 1005.12 1003.88 1002.85 1002.10 1001.67 1001.55 1001.73 1002.14 1002.71 1003.38 1004.09 1004.78 1005.45 1006.07 1006.67 1007.23 1007.79 1008.35 1008.92 1009.49 1010.06 1010.63 1011.18 1011.72 1012.23 1012.70 1013.13 1013.51 1013.85 1014.15 1014.42
1018.90 1019.02 1018.98 1018.76 1018.36 1017.83 1017.21 1016.54 1015.86 1015.17 1014.48 1013.75 1012.95 1012.03 1010.98 1009.80 1008.52 1007.19 1005.88 1004.68 1003.66 1002.87 1002.35 1002.09 1002.10 1002.32 1002.71 1003.21 1003.80 1004.43 1005.09 1005.75 1006.40 1007.05 1007.69 1008.31 1008.91 1009.50 1010.08 1010.65 1011.20 1011.74 1012.25 1012.73 1013.17 1013.57 1013.91 1014.21 1014.48
1019.14 1019.19 1019.06 1018.74 1018.25 1017.65 1016.98 1016.30 1015.63 1014.98 1014.33 1013.66 1012.92 1012.08 1011.11 1010.02 1008.84 1007.61 1006.40 1005.28 1004.31 1003.52 1002.94 1002.57 1002.42 1002.45 1002.65 1002.98 1003.44 1004.00 1004.64 1005.33 1006.06 1006.80 1007.54 1008.24 1008.91 1009.53 1010.12 1010.68 1011.22 1011.74 1012.25 1012.72 1013.16 1013.56 1013.91 1014.22 1014.50
1019.14 1019.11 1018.87 1018.43 1017.84 1017.15 1016.42 1015.69 1015.01 1014.38 1013.77 1013.14 1012.46 1011.69 1010.81 1009.83 1008.78 1007.69 1006.62 1005.62 1004.73 1003.98 1003.38 1002.93 1002.64 1002.51 1002.53 1002.70 1003.03 1003.51 1004.12 1004.84 1005.64 1006.48 1007.31 1008.10 1008.84 1009.51 1010.12 1010.67 1011.19 1011.69 1012.18 1012.65 1013.09 1013.50 1013.87 1014.20 1014.50
1019.01 1018.88 1018.52 1017.97 1017.26 1016.47 1015.65 1014.87 1014.16 1013.51 1012.91 1012.31 1011.68 1010.97 1010.18 1009.31 1008.39 1007.45 1006.54 1005.68 1004.91 1004.23 1003.65 1003.16 1002.78 1002.52 1002.39 1002.41 1002.61 1003.00 1003.56 1004.29 1005.14 1006.05 1006.97 1007.85 1008.66 1009.38 1010.02 1010.58 1011.09 1011.58 1012.05 1012.52 1012.97 1013.41 1013.81 1014.19 1014.52
1018.88 1018.65 1018.19 1017.51 1016.69 1015.79 1014.88 1014.03 1013.26 1012.58 1011.96 1011.36 1010.75 1010.09 1009.38 1008.61 1007.82 1007.02 1006.26 1005.56 1004.91 1004.33 1003.80 1003.31 1002.88 1002.52 1002.27 1002.16 1002.24 1002.52 1003.03 1003.73 1004.58 1005.53 1006.52 1007.47 1008.34 1009.12 1009.79 1010.38 1010.91 1011.41 1011.89 1012.37 1012.85 1013.33 1013.79 1014.21 1014.60
1018.89 1018.59 1018.03 1017.24 1016.31 1015.30 1014.29 1013.34 1012.50 1011.76 1011.10 1010.49 1009.88 1009.25 1008.59 1007.90 1007.21 1006.54 1005.91 1005.35 1004.83 1004.35 1003.88 1003.43 1002.98 1002.57 1002.23 1002.01 1001.96 1002.13 1002.54 1003.17 1003.99 1004.94 1005.94 1006.94 1007.87 1008.71 1009.45 1010.09 1010.66 1011.19 1011.71 1012.24 1012.77 1013.30 1013.82 1014.31 1014.76
1019.14 1018.78 1018.14 1017.27 1016.23 1015.12 1014.01 1012.97 1012.03 1011.22 1010.51 1009.86 1009.24 1008.62 1007.99 1007.36 1006.74 1006.16 1005.63 1005.17 1004.75 1004.36 1003.97 1003.56 1003.12 1002.68 1002.27 1001.96 1001.80 1001.85 1002.13 1002.65 1003.39 1004.29 1005.28 1006.29 1007.27 1008.17 1008.98 1009.70 1010.35 1010.95 1011.54 1012.13 1012.73 1013.33 1013.92 1014.48 1014.99
1019.60 1019.20 1018.51 1017.57 1016.46 1015.26 1014.05 1012.92 1011.90 1011.01 1010.24 1009.55 1008.91 1008.30 1007.69 1007.09 1006.51 1005.98 1005.52 1005.11 1004.76 1004.43 1004.09 1003.72 1003.30 1002.84 1002.40 1002.01 1001.74 1001.65 1001.79 1002.18 1002.80 1003.60 1004.54 1005.55 1006.56 1007.52 1008.42 1009.24 1009.99 1010.69 1011.37 1012.05 1012.72 1013.40 1014.06 1014.69 1015.26
1020.15 1019.75 1019.04 1018.06 1016.90 1015.63 1014.35 1013.14 1012.04 1011.09 1010.27 1009.56 1008.91 1008.30 1007.71 1007.13 1006.58 1006.06 1005.61 1005.22 1004.87 1004.56 1004.24 1003.89 1003.48 1003.03 1002.55 1002.10 1001.74 1001.53 1001.52 1001.75 1002.23 1002.92 1003.77 1004.74 1005.76 1006.79 1007.77 1008.70 1009.57 1010.39 1011.17 1011.94 1012.70 1013.44 1014.17 1014.86 1015.49
1020.66 1020.27 1019.56 1018.59 1017.41 1016.11 1014.78 1013.51 1012.36 1011.37 1010.53 1009.81 1009.17 1008.59 1008.02 1007.46 1006.91 1006.39 1005.91 1005.48 1005.09 1004.74 1004.40 1004.04 1003.63 1003.17 1002.67 1002.18 1001.74 1001.43 1001.28 1001.36 1001.69 1002.24 1003.00 1003.91 1004.92 1005.98 1007.05 1008.08 1009.06 1010.00 1010.89 1011.75 1012.58 1013.39 1014.18 1014.92 1015.61
1020.96 1020.60 1019.95 1019.01 1017.85 1016.55 1015.21 1013.91 1012.74 1011.73 1010.89 1010.19 1009.60 1009.06 1008.54 1008.01 1007.46 1006.91 1006.37 1005.86 1005.39 1004.96 1004.55 1004.14 1003.70 1003.22 1002.72 1002.20 1001.71 1001.31 1001.06 1001.00 1001.18 1001.60 1002.24 1003.08 1004.06 1005.14 1006.26 1007.38 1008.46 1009.50 1010.48 1011.42 1012.32 1013.19 1014.02 1014.82 1015.56
1020.97 1020.68 1020.09 1019.23 1018.12 1016.86 1015.54 1014.25 1013.07 1012.07 1011.25 1010.60 1010.07 1009.60 1009.15 1008.66 1008.12 1007.54 1006.93 1006.32 1005.73 1005.18 1004.66 1004.17 1003.68 1003.18 1002.66 1002.13 1001.62 1001.17 1000.84 1000.67 1000.73 1001.02 1001.55 1002.30 1003.23 1004.29 1005.43 1006.60 1007.75 1008.86 1009.92 1010.93 1011.88 1012.79 1013.67 1014.51 1015.31
1020.70 1020.49 1020.01 1019.25 1018.25 1017.05 1015.77 1014.49 1013.33 1012.34 1011.56 1010.96 1010.50 1010.12 1009.74 1009.32 1008.81 1008.20 1007.53 1006.81 1006.08 1005.39 1004.74 1004.14 1003.58 1003.05 1002.51 1001.98 1001.47 1001.00 1000.62 1000.39 1000.34 1000.52 1000.94 1001.59 1002.45 1003.47 1004.59 1005.77 1006.96 1008.12 1009.22 1010.28 1011.27 1012.23 1013.14 1014.02 1014.87
1020.27 1020.17 1019.83 1019.20 1018.30 1017.19 1015.95 1014.70 1013.53 1012.54 1011.77 1011.21 1010.82 1010.52 1010.23 1009.88 1009.42 1008.82 1008.09 1007.28 1006.43 1005.60 1004.81 1004.10 1003.46 1002.87 1002.32 1001.80 1001.29 1000.83 1000.44 1000.16 1000.05 1000.14 1000.46 1001.01 1001.78 1002.73 1003.81 1004.96 1006.15 1007.32 1008.45 1009.53 1010.56 1011.54 1012.49 1013.42 1014.31
1019.86 1019.90 1019.70 1019.22 1018.44 1017.40 1016.19 1014.93 1013.74 1012.71 1011.92 1011.36 1011.00 1010.76 1010.55 1010.28 1009.88 1009.30 1008.56 1007.69 1006.76 1005.80 1004.90 1004.07 1003.34 1002.70 1002.13 1001.61 1001.13 1000.69 1000.30 1000.02 999.87 999.90 1000.14 1000.59 1001.27 1002.13 1003.13 1004.24 1005.39 1006.55 1007.68 1008.78 1009.83 1010.85 1011.83 1012.79 1013.72
1019.66 1019.83 1019.79 1019.45 1018.78 1017.79 1016.59 1015.28 1014.01 1012.89 1012.02 1011.41 1011.03 1010.82 1010.66 1010.46 1010.14 1009.62 1008.90 1008.03 1007.04 1006.02 1005.02 1004.10 1003.29 1002.59 1001.99 1001.46 1001.00 1000.58 1000.22 999.94 999.78 999.78 999.96 1000.34 1000.93 1001.71 1002.64 1003.68 1004.78 1005.91 1007.03 1008.13 1009.20 1010.24 1011.25 1012.24 1013.20
1019.76 1020.09 1020.20 1019.98 1019.38 1018.41 1017.17 1015.77 1014.37 1013.11 1012.09 1011.37 1010.93 1010.69 1010.56 1010.42 1010.17 1009.73 1009.09 1008.25 1007.27 1006.22 1005.17 1004.18 1003.31 1002.55 1001.91 1001.37 1000.90 1000.50 1000.16 999.91 999.76 999.75 999.91 1000.25 1000.78 1001.49 1002.35 1003.32 1004.37 1005.45 1006.55 1007.65 1008.73 1009.79 1010.82 1011.83 1012.81
1020.19 1020.66 1020.89 1020.75 1020.19 1019.21 1017.89 1016.36 1014.79 1013.35 1012.15 1011.27 1010.71 1010.40 1010.26 1010.16 1009.99 1009.65 1009.10 1008.34 1007.42 1006.39 1005.33 1004.31 1003.38 1002.56 1001.87 1001.29 1000.81 1000.41 1000.10 999.88 999.76 999.78 999.95 1000.28 1000.79 1001.46 1002.26 1003.18 1004.18 1005.23 1006.30 1007.38 1008.46 1009.53 1010.58 1011.60 1012.58
1020.84 1021.41 1021.73 1021.65 1021.09 1020.06 1018.64 1016.96 1015.21 1013.57 1012.17 1011.11 1010.40 1010.00 1009.82 1009.74 1009.63 1009.38 1008.95 1008.30 1007.47 1006.50 1005.46 1004.42 1003.45 1002.58 1001.82 1001.19 1000.68 1000.27 999.97 999.78 999.72 999.79 1000.01 1000.38 1000.91 1001.57 1002.36 1003.25 1004.21 1005.22 1006.27 1007.33 1008.39 1009.45 1010.50 1011.52 1012.50
1021.54 1022.18 1022.53 1022.45 1021.86 1020.77 1019.25 1017.45 1015.54 1013.72 1012.14 1010.91 1010.06 1009.55 1009.31 1009.22 1009.15 1008.99 1008.66 1008.13 1007.39 1006.50 1005.50 1004.47 1003.47 1002.54 1001.72 1001.02 1000.45 1000.03 999.74 999.59 999.59 999.74 1000.04 1000.49 1001.07 1001.78 1002.58 1003.47 1004.40 1005.38 1006.39 1007.42 1008.47 1009.51 1010.54 1011.55 1012.51
1022.09 1022.73 1023.05 1022.94 1022.30 1021.15 1019.56 1017.68 1015.68 1013.75 1012.05 1010.69 1009.72 1009.12 1008.82 1008.69 1008.64 1008.52 1008.27 1007.83 1007.19 1006.37 1005.42 1004.39 1003.36 1002.38 1001.49 1000.72 1000.10 999.64 999.35 999.25 999.33 999.58 999.99 1000.55 1001.23 1002.01 1002.86 1003.76 1004.69 1005.64 1006.61 1007.60 1008.61 1009.62 1010.63 1011.61 1012.55
1022.33 1022.89 1023.13 1022.94 1022.25 1021.06 1019.46 1017.57 1015.56 1013.62 1011.90 1010.49 1009.46 1008.79 1008.41 1008.24 1008.15 1008.04 1007.81 1007.42 1006.83 1006.06 1005.15 1004.13 1003.08 1002.04 1001.09 1000.25 999.58 999.10 998.82 998.77 998.94 999.30 999.85 1000.53 1001.33 1002.21 1003.12 1004.05 1004.98 1005.92 1006.85 1007.80 1008.76 1009.73 1010.70 1011.66 1012.58
1022.19 1022.60 1022.71 1022.41 1021.65 1020.46 1018.91 1017.10 1015.20 1013.36 1011.71 1010.35 1009.31 1008.60 1008.15 1007.90 1007.74 1007.57 1007.31 1006.90 1006.32 1005.57 1004.66 1003.64 1002.57 1001.50 1000.50 999.62 998.92 998.43 998.17 998.18 998.44 998.92 999.60 1000.43 1001.36 1002.34 1003.33 1004.30 1005.24 1006.16 1007.06 1007.95 1008.87 1009.79 1010.73 1011.67 1012.57
Thickness
5705 5708 5709 5703 5688 5675 5681 5699 5715 5723 5726 5736 5741 5739 5735 5731 5729 5729 5747 5754 5754 5752 5750 5748 5746 5744 5743 5742 5741 5740 5739 5739 5738 5737 5736 5735 5734 5732 5731 5730 5729 5728 5726 5725 5724 5723 5722 5721 5719
5697 5700 5696 5685 5670 5663 5679 5700 5711 5722 5731 5737 5737 5735 5731 5731 5739 5740 5744 5749 5750 5749 5747 5746 5744 5742 5741 5739 5738 5738 5737 5736 5735 5734 5733 5732 5731 5729 5728 5727 5725 5724 5723 5722 5720 5719 5718 5717 5716
5689 5689 5678 5669 5663 5669 5685 5702 5711 5722 5729 5729 5727 5728 5727 5728 5735 5738 5743 5746 5745 5744 5743 5742 5741 5740 5738 5737 5736 5735 5734 5733 5731 5730 5729 5728 5727 5726 5725 5724 5722 5721 5720 5718 5717 5716 5715 5714 5713
5676 5670 5664 5658 5664 5679 5691 5702 5710 5713 5719 5722 5719 5715 5723 5732 5734 5737 5740 5742 5741 5739 5738 5738 5737 5736 5735 5734 5732 5731 5730 5729 5728 5727 5726 5725 5724 5723 5721 5720 5719 5718 5716 5715 5714 5713 5712 5710 5709
5662 5653 5646 5647 5662 5677 5687 5697 5703 5702 5706 5711 5711 5706 5713 5726 5733 5735 5736 5736 5736 5734 5734 5733 5733 5732 5731 5730 5729 5728 5726 5725 5724 5723 5722 5721 5720 5719 5718 5717 5715 5714 5713 5712 5711 5709 5708 5707 5706
5642 5639 5633 5640 5656 5670 5679 5687 5691 5691 5695 5701 5701 5699 5705 5718 5724 5727 5730 5730 5731 5730 5729 5728 5728 5727 5727 5726 5725 5724 5722 5721 5720 5719 5718 5717 5716 5715 5714 5713 5712 5711 5709 5708 5707 5706 5704 5703 5702
5630 5628 5628 5636 5645 5655 5669 5677 5677 5679 5683 5689 5694 5691 5698 5708 5716 5720 5723 5723 5724 5724 5724 5723 5723 5722 5721 5722 5721 5720 5718 5717 5716 5715 5714 5713 5712 5711 5710 5709 5708 5706 5705 5704 5703 5702 5700 5699 5698
5623 5619 5621 5626 5634 5644 5661 5667 5671 5671 5674 5684 5688 5683 5687 5698 5707 5712 5713 5714 5715 5716 5717 5717 5717 5717 5716 5716 5716 5715 5714 5712 5711 5710 5710 5709 5707 5706 5705 5704 5703 5702 5701 5700 5699 5697 5696 5695 5694
5614 5605 5611 5622 5629 5637 5650 5654 5659 5667 5668 5673 5678 5682 5690 5695 5700 5701 5702 5703 5705 5707 5709 5710 5711 5712 5711 5710 5710 5710 5709 5708 5706 5705 5704 5703 5702 5701 5700 5699 5698 5697 5696 5695 5694 5693 5692 5690 5689
5597 5596 5611 5623 5628 5630 5637 5641 5646 5650 5652 5658 5666 5674 5681 5685 5688 5690 5692 5694 5696 5699 5701 5704 5705 5706 5706 5705 5704 5704 5703 5702 5701 5700 5699 5698 5697 5696 5695 5694 5693 5691 5690 5690 5689 5688 5687 5686 5684
5587 5591 5605 5613 5620 5623 5626 5630 5637 5638 5639 5649 5656 5663 5669 5674 5678 5680 5683 5687 5691 5693 5695 5696 5698 5700 5700 5700 5699 5698 5698 5697 5696 5695 5695 5694 5692 5691 5689 5688 5687 5686 5685 5684 5683 5682 5681 5680 5679
5574 5583 5593 5601 5609 5613 5615 5620 5623 5629 5638 5648 5654 5659 5662 5665 5668 5672 5674 5678 5683 5685 5687 5689 5691 5693 5694 5694 5693 5692 5692 5691 5691 5690 5689 5689 5687 5686 5684 5683 5682 5681 5679 5678 5677 5676 5675 5674 5673
5562 5572 5582 5589 5596 5600 5605 5608 5613 5621 5632 5640 5645 5649 5653 5657 5661 5664 5668 5670 5675 5677 5679 5682 5685 5686 5687 5687 5686 5686 5686 5686 5686 5685 5684 5684 5682 5680 5679 5677 5676 5675 5673 5672 5671 5670 5669 5668 5667
5557 5563 5570 5577 5584 5590 5594 5600 5605 5615 5624 5630 5635 5639 5645 5649 5653 5656 5659 5663 5666 5669 5672 5674 5677 5679 5680 5680 5680 5680 5680 5679 5680 5680 5679 5678 5677 5675 5673 5671 5670 5669 5668 5666 5665 5663 5662 5661 5660
5551 5551 5558 5566 5573 5580 5586 5588 5599 5609 5613 5619 5624 5630 5635 5640 5645 5648 5652 5656 5659 5662 5665 5666 5669 5670 5671 5673 5673 5673 5673 5673 5673 5673 5673 5672 5672 5670 5668 5666 5664 5663 5661 5660 5658 5656 5655 5653 5652
5539 5539 5542 5557 5565 5571 5572 5577 5595 5600 5603 5607 5613 5620 5625 5630 5636 5641 5645 5649 5652 5654 5656 5659 5661 5662 5662 5664 5665 5665 5665 5666 5665 5666 5665 5664 5665 5664 5662 5660 5658 5656 5655 5653 5651 5649 5647 5645 5643
5523 5525 5535 5548 5559 5563 5564 5570 5585 5591 5595 5598 5603 5609 5615 5620 5625 5630 5635 5640 5643 5646 5648 5650 5652 5653 5654 5655 5656 5657 5657 5657 5657 5657 5657 5656 5656 5656 5655 5653 5651 5649 5647 5645 5643 5640 5639 5636 5634
5516 5521 5531 5539 5552 5555 5557 5565 5575 5581 5586 5588 5592 5598 5605 5610 5614 5620 5624 5630 5633 5636 5639 5641 5643 5644 5645 5646 5647 5647 5647 5648 5648 5648 5648 5648 5648 5647 5646 5644 5643 5641 5639 5636 5634 5632 5629 5627 5625
5521 5525 5528 5537 5547 5548 5552 5558 5565 5570 5574 5578 5582 5588 5594 5601 5606 5610 5614 5620 5622 5624 5628 5631 5633 5635 5636 5637 5638 5639 5638 5639 5640 5640 5640 5640 5638 5637 5637 5635 5634 5632 5630 5628 5626 5623 5619 5616 5615
5519 5520 5524 5532 5542 5542 5543 5550 5557 5561 5566 5571 5576 5580 5586 5591 5595 5599 5604 5608 5612 5615 5618 5622 5624 5627 5628 5630 5631 5631 5631 5631 5631 5631 5632 5631 5630 5628 5628 5627 5625 5623 5621 5619 5617 5614 5610 5607 5605
5517 5520 5523 5526 5533 5536 5536 5538 5547 5555 5559 5564 5570 5575 5579 5585 5587 5591 5595 5598 5601 5605 5609 5612 5614 5617 5619 5621 5621 5621 5621 5621 5621 5622 5622 5623 5621 5619 5618 5617 5616 5614 5612 5610 5608 5606 5603 5599 5596
5514 5524 5526 5526 5521 5519 5526 5522 5538 5546 5549 5555 5560 5565 5571 5576 5580 5583 5586 5588 5591 5595 5598 5601 5604 5607 5609 5611 5612 5613 5614 5614 5614 5614 5613 5613 5612 5611 5609 5607 5605 5604 5602 5600 5599 5597 5594 5591 5587
5516 5524 5523 5522 5517 5513 5517 5515 5529 5538 5541 5549 5554 5558 5563 5567 5571 5575 5577 5579 5582 5584 5587 5590 5593 5596 5599 5601 5603 5603 5604 5605 5605 5604 5603 5603 5602 5601 5599 5598 5596 5594 5592 5591 5589 5586 5584 5582 5579
5518 5518 5515 5510 5507 5507 5514 5511 5519 5531 5543 5548 5550 5552 5555 5559 5562 5565 5568 5570 5572 5574 5576 5579 5583 5586 5588 5591 5592 5594 5594 5595 5594 5594 5592 5592 5591 5591 5589 5588 5587 5584 5582 5580 5578 5577 5574 5572 5570
5510 5504 5497 5496 5491 5499 5511 5509 5517 5535 5542 5546 5548 5547 5548 5551 5553 5556 5558 5560 5562 5564 5567 5570 5573 5575 5578 5580 5582 5583 5584 5585 5585 5585 5583 5582 5581 5580 5579 5579 5578 5575 5573 5571 5569 5568 5565 5562 5560
5502 5500 5493 5492 5490 5496 5505 5506 5519 5531 5536 5539 5541 5541 5541 5543 5545 5549 5551 5552 5553 5555 5558 5560 5563 5565 5567 5569 5571 5572 5573 5574 5574 5574 5573 5572 5571 5571 5570 5569 5569 5567 5565 5563 5561 5559 5556 5553 5551
5496 5492 5495 5487 5486 5489 5497 5504 5516 5527 5529 5529 5529 5530 5531 5534 5536 5539 5541 5543 5544 5546 5548 5550 5553 5555 5557 5559 5560 5562 5562 5563 5563 5562 5562 5561 5561 5561 5560 5560 5559 5557 5556 5553 5551 5549 5547 5545 5542
5494 5491 5483 5482 5484 5489 5494 5497 5506 5515 5518 5521 5522 5523 5525 5527 5528 5530 5531 5533 5535 5537 5539 5541 5543 5546 5547 5549 5551 5552 5552 5553 5552 5552 5551 5551 5551 5551 5550 5550 5549 5548 5546 5544 5541 5539 5537 5535 5533
5482 5482 5480 5474 5477 5480 5485 5499 5509 5510 5515 5515 5516 5517 5518 5519 5520 5521 5522 5523 5525 5526 5528 5530 5533 5535 5537 5539 5540 5541 5541 5542 5541 5541 5540 5540 5540 5540 5540 5540 5539 5538 5536 5534 5532 5530 5528 5526 5523
5478 5477 5473 5475 5471 5468 5470 5493 5506 5503 5506 5508 5509 5510 5511 5512 5513 5513 5513 5514 5514 5516 5518 5520 5523 5525 5527 5528 5529 5530 5530 5530 5530 5531 5530 5530 5530 5530 5530 5529 5529 5528 5526 5524 5522 5520 5518 5516 5513